User: anonymous   Login
Location: Waldport
(44.4270°N, 124.0680°W)
Time: 19:05:32
(UTC-07:00)
Language:

Cosmos 1570 Rocket - Orbit

View from above orbital plane
View from above orbital plane
View from above satellite
View from above satellite

Ground track
Ground track

The orbit data is extracted from the following two-line orbital elements,

1 15032U 84056B   16147.91927565 +.00000042 +00000-0 +24145-4 0  9993
2 15032 074.0724 062.2955 0017961 319.2718 040.7090 14.34659677671254
Epoch (UTC): 26 May 2016 22:03:45
Eccentricity: 0.0017961
inclination: 74.0724°
perigee height: 763 km
apogee height: 789 km
right ascension of ascending node: 62.2955°
argument of perigee: 319.2718°
revolutions per day: 14.34659677
mean anomaly at epoch: 40.7090°
orbit number at epoch: 67125

The dashed part of the orbit path shows where the satellite is in the earth's shadow,  

DLR